Weather in Bagdod

Uzbekistan     40°27′40″N   71°12′43″E
В апреле 2022 года жителям России запретили посещать сайт meteo.paraplan.net по решению Генеральной прокуратуры. Аудитория сайта уменьшилась в 10 раз. Владельцы сайта не видят смысла в поддержке погодного сервера в таких условиях. Сайт будет закрыт в октябре.
temp.,
°C
wind,
m/s
gust,
m/s
humid.,
%
clouds,
%
prec.,
mm/h
press.,
hPa
HPBL,
m
30 september, fri
fri3023:00+22sw3525100 0.0 1010122
02:00+21wsw4927100 0.0 1009227
05:00+20w4926100 0.0 1010187
08:00+22w5921100 0.0 1011383
11:00+26w6716100 0.0 10111014
14:00+28w6714100 0.0 10091228
17:00+27w6121595 0.0 1009781
20:00+25wsw10171799 0.0 1010782
1 october, sat
sat123:00+23wsw71319100 0.0 1011516
02:00+21wsw61322100 0.0 1012451
05:00+20w81424100 0.0 1013391
08:00+21w81024100 0.0 1015408
11:00+25w561894 0.0 1015831
14:00+28w6615100 0.0 10121135
17:00+25w681697 0.0 1012892
20:00+22wsw81517100 0.0 1013580
2 october, sun
sun223:00+20wsw5121971 0.0 1014329
02:00+19w482299 0.0 1015272
05:00+16w462720 0.0 1016137
08:00+18w45235 0.0 1017319
11:00+24wsw22175 0.0 1015899
14:00+27sw111588 0.0 10121229
17:00+27wsw221611 0.0 1011224
20:00+21w5102217 0.0 1012254
3 october, mon
mon323:00+20wsw510215 0.0 1012233
02:00+17w24240 0.0 101284
05:00+16wsw34275 0.0 101280
08:00+19wsw4621100 0.0 1014356
11:00+24w551696 0.0 1013848
14:00+27w331485 0.0 10111388
17:00+26wsw351534 0.0 1011279
20:00+21wsw471932 0.0 1013123
4 october, tue
tue423:00+19s122346 0.0 101429
02:00+17sw11275 0.0 101522
05:00+15sw22295 0.0 101632
08:00+19w46250 0.0 1017344
11:00+24w44180 0.0 1016965
14:00+28w34150 0.0 10151539
17:00+27w57140 0.0 1015490
20:00+23wsw815162 0.0 1017441